TimeEDT,TemperatureF,Dew PointF,Humidity,Sea Level PressureIn,VisibilityMPH,Wind Direction,Wind SpeedMPH,Gust SpeedMPH,PrecipitationIn,Events,Conditions,WindDirDegrees,DateUTC
12:15 AM,40.1,23.0,51,30.23,10.0,Calm,Calm,-,N/A,,Clear,0,2013-03-28 04:15:00
12:35 AM,40.1,23.0,51,30.23,10.0,NW,3.5,-,N/A,,Clear,320,2013-03-28 04:35:00
12:55 AM,39.6,23.4,52,30.22,10.0,NW,3.5,-,N/A,,Clear,320,2013-03-28 04:55:00
1:15 AM,38.3,23.9,56,30.23,10.0,NW,3.5,-,N/A,,Clear,310,2013-03-28 05:15:00
1:35 AM,39.4,23.4,53,30.23,10.0,NNW,3.5,-,N/A,,Clear,330,2013-03-28 05:35:00
2:15 AM,38.3,23.9,56,30.23,10.0,NW,5.8,-,N/A,,Clear,320,2013-03-28 06:15:00
2:35 AM,38.3,23.7,56,30.23,10.0,NW,5.8,-,N/A,,Clear,320,2013-03-28 06:35:00
2:55 AM,38.3,23.7,56,30.23,10.0,NW,5.8,-,N/A,,Clear,320,2013-03-28 06:55:00
3:15 AM,38.3,23.9,56,30.22,10.0,NNW,5.8,-,N/A,,Clear,330,2013-03-28 07:15:00
3:35 AM,37.8,23.9,57,30.22,10.0,NW,4.6,-,N/A,,Clear,320,2013-03-28 07:35:00
3:55 AM,37.8,23.9,57,30.22,10.0,NW,5.8,-,N/A,,Clear,320,2013-03-28 07:55:00
4:15 AM,37.4,23.5,57,30.22,10.0,NW,4.6,-,N/A,,Clear,320,2013-03-28 08:15:00
4:35 AM,37.2,23.2,57,30.22,10.0,NW,4.6,-,N/A,,Clear,310,2013-03-28 08:35:00
4:55 AM,36.1,23.5,60,30.22,10.0,Calm,Calm,-,N/A,,Clear,0,2013-03-28 08:55:00
5:15 AM,34.7,23.9,65,30.22,10.0,Calm,Calm,-,N/A,,Clear,0,2013-03-28 09:15:00
5:35 AM,33.8,23.9,67,30.22,10.0,NW,3.5,-,N/A,,Clear,310,2013-03-28 09:35:00
5:55 AM,34.3,23.9,66,30.22,10.0,NW,4.6,-,N/A,,Clear,310,2013-03-28 09:55:00
6:15 AM,34.7,23.9,65,30.22,10.0,NW,3.5,-,N/A,,Clear,320,2013-03-28 10:15:00
6:35 AM,34.7,24.4,66,30.22,10.0,Calm,Calm,-,N/A,,Clear,0,2013-03-28 10:35:00
6:55 AM,33.4,23.9,68,30.23,10.0,Calm,Calm,-,N/A,,Clear,0,2013-03-28 10:55:00
7:15 AM,33.6,23.7,67,30.24,10.0,Calm,Calm,-,N/A,,Clear,0,2013-03-28 11:15:00
7:35 AM,33.8,23.9,67,30.24,10.0,NW,3.5,-,N/A,,Clear,310,2013-03-28 11:35:00
8:15 AM,36.9,24.3,60,30.25,10.0,NW,6.9,-,N/A,,Clear,310,2013-03-28 12:15:00
8:35 AM,38.3,24.4,57,30.26,10.0,NW,9.2,-,N/A,,Clear,320,2013-03-28 12:35:00
8:55 AM,40.1,24.1,53,30.26,10.0,NW,9.2,-,N/A,,Clear,320,2013-03-28 12:55:00
9:15 AM,41.4,24.6,51,30.26,10.0,NW,8.1,-,N/A,,Clear,320,2013-03-28 13:15:00
9:35 AM,42.8,24.3,48,30.27,10.0,NW,11.5,17.3,N/A,,Clear,320,2013-03-28 13:35:00
9:55 AM,44.6,25.0,46,30.27,10.0,NNW,9.2,16.1,N/A,,Clear,330,2013-03-28 13:55:00
10:15 AM,45.7,25.0,44,30.27,10.0,NW,12.7,17.3,N/A,,Clear,310,2013-03-28 14:15:00
10:35 AM,47.1,25.2,42,30.26,10.0,NW,9.2,16.1,N/A,,Clear,320,2013-03-28 14:35:00
10:55 AM,47.3,23.9,40,30.26,10.0,NW,12.7,19.6,N/A,,Clear,310,2013-03-28 14:55:00
11:15 AM,48.6,24.3,39,30.26,10.0,WNW,11.5,17.3,N/A,,Clear,300,2013-03-28 15:15:00
11:35 AM,48.6,22.5,36,30.26,10.0,WNW,12.7,16.1,N/A,,Clear,290,2013-03-28 15:35:00
11:55 AM,50.0,23.5,36,30.25,10.0,NW,4.6,-,N/A,,Clear,320,2013-03-28 15:55:00
12:15 PM,50.9,23.4,34,30.24,10.0,West,13.8,19.6,N/A,,Clear,280,2013-03-28 16:15:00
12:35 PM,51.6,23.0,33,30.24,10.0,West,10.4,17.3,N/A,,Clear,260,2013-03-28 16:35:00
12:55 PM,51.8,22.6,32,30.23,10.0,West,11.5,-,N/A,,Clear,280,2013-03-28 16:55:00
1:15 PM,52.3,22.6,31,30.23,10.0,WNW,12.7,18.4,N/A,,Clear,300,2013-03-28 17:15:00
1:35 PM,53.1,23.5,32,30.22,10.0,NW,4.6,-,N/A,,Clear,320,2013-03-28 17:35:00
1:55 PM,52.2,22.3,31,30.21,10.0,West,10.4,18.4,N/A,,Clear,280,2013-03-28 17:55:00
2:15 PM,53.4,22.8,30,30.21,10.0,West,10.4,17.3,N/A,,Clear,270,2013-03-28 18:15:00
2:35 PM,54.3,23.5,30,30.20,10.0,NW,12.7,-,N/A,,Clear,310,2013-03-28 18:35:00
3:15 PM,55.0,23.9,30,30.19,10.0,West,10.4,18.4,N/A,,Clear,270,2013-03-28 19:15:00
3:35 PM,55.6,23.5,29,30.18,10.0,West,8.1,18.4,N/A,,Clear,280,2013-03-28 19:35:00
3:55 PM,56.3,23.4,28,30.17,10.0,West,12.7,17.3,N/A,,Clear,280,2013-03-28 19:55:00
4:15 PM,56.3,23.2,28,30.17,10.0,NW,15.0,20.7,N/A,,Clear,310,2013-03-28 20:15:00
4:35 PM,57.0,22.8,27,30.17,10.0,NW,9.2,16.1,N/A,,Clear,310,2013-03-28 20:35:00
4:55 PM,56.3,22.3,27,30.17,10.0,WNW,5.8,17.3,N/A,,Clear,300,2013-03-28 20:55:00
5:15 PM,57.4,23.2,27,30.17,10.0,NW,11.5,17.3,N/A,,Clear,310,2013-03-28 21:15:00
5:35 PM,57.4,22.6,26,30.17,10.0,NW,12.7,18.4,N/A,,Clear,310,2013-03-28 21:35:00
5:55 PM,57.0,22.5,26,30.17,10.0,NW,6.9,16.1,N/A,,Clear,320,2013-03-28 21:55:00
6:15 PM,57.2,23.2,27,30.17,10.0,WNW,9.2,-,N/A,,Clear,300,2013-03-28 22:15:00
6:35 PM,56.5,22.5,27,30.17,10.0,NW,9.2,-,N/A,,Clear,320,2013-03-28 22:35:00
7:15 PM,55.6,22.8,28,30.19,10.0,NW,8.1,-,N/A,,Clear,310,2013-03-28 23:15:00
7:35 PM,54.0,23.0,30,30.19,10.0,NNW,3.5,-,N/A,,Clear,330,2013-03-28 23:35:00
8:15 PM,51.3,24.6,35,30.21,10.0,Calm,Calm,-,N/A,,Clear,0,2013-03-29 00:15:00
8:35 PM,48.6,26.6,42,30.22,10.0,Calm,Calm,-,N/A,,Clear,0,2013-03-29 00:35:00
8:55 PM,45.0,28.4,52,30.22,10.0,Calm,Calm,-,N/A,,Clear,0,2013-03-29 00:55:00
9:15 PM,45.0,28.2,52,30.23,10.0,Calm,Calm,-,N/A,,Clear,0,2013-03-29 01:15:00
9:35 PM,42.6,28.4,57,30.24,10.0,Calm,Calm,-,N/A,,Clear,0,2013-03-29 01:35:00
10:15 PM,40.3,29.3,65,30.25,10.0,Calm,Calm,-,N/A,,Clear,0,2013-03-29 02:15:00
10:35 PM,40.5,29.3,64,30.25,10.0,Calm,Calm,-,N/A,,Clear,0,2013-03-29 02:35:00
11:15 PM,41.7,28.2,59,30.27,10.0,Calm,Calm,-,N/A,,Clear,0,2013-03-29 03:15:00
11:35 PM,40.1,28.2,63,30.27,10.0,Calm,Calm,-,N/A,,Clear,0,2013-03-29 03:35:00